Terminal Aerodrome Forecast
Issued by NWS Corpus Christi, TX

Home | Current Version | Previous Version | Text Only | Print | Product List | Glossary On
Versions: 1 2 3 4 5 6 7 8 9 10 11
000
FTUS44 KCRP 271700
TAFVCT
TAF
KVCT 271731Z 2718/2818 19012KT P6SM VCSH BKN014 OVC020
     FM272000 36015G22KT P6SM OVC012
     FM280600 36014G20KT 6SM RA OVC012
     FM281600 35011KT P6SM OVC015=

USA.gov is the U.S. government's official web portal to all federal, state and local government web resources and services.